Weather in Dabou

Côte d'Ivoire     5°19′46″N   4°22′32″W
temp.,
°C
wind,
m/s
gust,
m/s
humid.,
%
clouds,
%
prec.,
mm/h
press.,
hPa
HPBL,
m
17 september, fri
fri1700:00+24wsw359232 0.1 1014216
03:00+24w369351 0.1 1013291
06:00+24wnw3494100 0.3 1014225
09:00+25w348524 0.0 1016385
12:00+26sw448696 1.6 1014340
15:00+25sw668993 1.6 1012405
18:00+25sw5791100 1.6 1013373
21:00+25wsw5892100 0.4 1014352
18 september, sat
sat1800:00+25sw589296 0.6 1013343
03:00+24sw589192 1.8 1011308
06:00+24w479296 3.1 1012288
09:00+25w35885 1.1 1014311
12:00+26sw458513 3.7 1013411
15:00+26ssw568413 0.3 1011513
18:00+25ssw478999 0.3 1012348
21:00+25ssw4691100 0.0 1014183
19 september, sun
sun1900:00+25ssw479086 0.2 1013253
03:00+24sw469083 0.1 1012282
06:00+24wsw239091 0.3 101389
09:00+25ssw338215 0.0 1015416
12:00+25s448133 0.0 1014465
15:00+26s448012 0.0 1012496
18:00+25s34845 0.0 1012237
21:00+25s338725 0.0 101447
20 september, mon
mon2000:00+25ssw238892 0.0 101452
03:00+24wsw2389100 0.3 101268
06:00+24w2389100 0.8 101487
09:00+25wnw228645 0.2 1015223
12:00+25sw3384100 1.4 1014297
15:00+26sw348052 0.0 1011377
18:00+25ssw358631 0.0 1012254
21:00+25sw359027 0.0 1014156
21 september, tue
tue2100:00+24sw469011 0.4 1013189
03:00+24wsw469046 0.6 1012261
06:00+24w469151 0.9 1013346
09:00+25wsw358418 0.2 1015506
12:00+25sw668640 0.2 1014389
15:00+26sw568319 0.1 1011450
18:00+25ssw468879 0.1 1011338
21:00+25ssw479084 0.0 1013250